URKKURKA

Guest
Details From URKK - PASHKOVSKIY
To URKA - Vityazevo
Flight Number -
Tags generated
Created
Modified
Stats Distance 77 nm / 143 km
Max Altitude 0 ft / 0 m
Waypoints 3
Social Downloads 2
Likes 0
Share

Download

Looking for another format? Having issues loading an existing format? Contact us
Advertisement - Login to hide

Notes

Basic altitude profile: - Ascent Rate: 2500ft/min - Ascent Speed: 250kts - Cruise Altitude: 35000ft - Cruise Speed: 420kts - Descent Rate: 1500ft/min - Descent Speed: 250kts Options: - Use NATs: yes - Use PACOTS: yes - Use low airways: no - Use high airways: yes

Route

URKK NODMI URKA

ID Type Via Altitude (ft/m) Position (lat/lon) Dist (leg/tot) Name
O URKK APT - 0 / 0 45.03464 / 39.17045 - / 0 nm PASHKOVSKIY
NODMI FIX - 0 / 0 45.03500 / 39.17000 0 / 0 nm
O URKA APT - 0 / 0 45.00190 / 37.34761 77 / 77 nm Vityazevo

Altitude Profile

Advertisement - Login to hide

URKK

Details ICAO URKK (KRR)
Name Krasnodar Pashkovsky
Region Russia
Timezone Europe/Moscow (UTC+3.0)
Stats Elevation 118 ft / 36 m (AMSL)
Location 45.034300° 39.188200°
Runways 1
Magnetic Variation 7.780° E

METAR

URKK 270630Z 23002MPS 170V300 CAVOK 19/12 Q1018 R23L/CLRD70 NOSIG RMK QFE760

Decode

TAF

TAF URKK 270451Z 2706/2806 27003G10MPS 9999 SCT040CB BECMG 2715/2717 22003MPS SCT040

Decode

Departure Runways

ID Width Length Bearing (true/mag) Surface Threshold Overrun Markings Lighting
05R 145 ft / 44 m 9,833 ft / 2,997 m 52.49° / 44.71° CONCRETE 0 ft / 0 m 0 ft / 0 m PREC-APP CENTERLINE EDGE THRESHOLD ALSF-II TDZ
23L 145 ft / 44 m 9,833 ft / 2,997 m 232.51° / 224.73° CONCRETE 0 ft / 0 m 0 ft / 0 m PREC-APP CENTERLINE EDGE THRESHOLD ALSF-II TDZ

URKA

Details ICAO URKA (AAQ)
Name Anapa Vityazevo Regl
Region Russia
Timezone Europe/Moscow (UTC+3.0)
Stats Elevation 176 ft / 54 m (AMSL)
Location 45.002100° 37.347300°
Runways 1
Magnetic Variation 7.606° E

METAR

URKA 270630Z 25003MPS 9999 SCT018CB 16/12 Q1019 R22/010070 NOSIG RMK QFE759/1012

Decode

TAF

TAF TAF URKA 270457Z 2706/2806 24003G08MPS 9999 SCT020CB TEMPO 2706/2718 20006G12MPS FM271800 16003G08MPS 6000 BKN016

Decode

Destination Runways

ID Width Length Bearing (true/mag) Surface Threshold Overrun Markings Lighting
04 148 ft / 45 m 8,210 ft / 2,502 m 42.13° / 34.53° CONCRETE 0 ft / 0 m 0 ft / 0 m PREC-APP CENTERLINE EDGE THRESHOLD ALSF-II TDZ REIL-OMNI
22 148 ft / 45 m 8,210 ft / 2,502 m 222.15° / 214.54° CONCRETE 0 ft / 0 m 0 ft / 0 m PREC-APP CENTERLINE EDGE THRESHOLD ALSF-II TDZ REIL-OMNI

Approach Navaids

Runway Type Ident Frequency Range Bearing (true/mag) Slope Elevation
04 LOC-ILS IAN 109.10 MHz 18 nm / 33 km 42.14° / 34.53 ° - 176 ft / 54 m (AMSL)
04 GS IAN 109.10 MHz 10 nm / 19 km 42.14° / 34.53 ° 3.00° 176 ft / 54 m (AMSL)
22 LOC-ILS IAP 110.90 MHz 18 nm / 33 km 222.14° / 214.53 ° - 176 ft / 54 m (AMSL)
22 GS IAP 110.90 MHz 10 nm / 19 km 222.14° / 214.53 ° 3.00° 176 ft / 54 m (AMSL)

Popular Alternatives